weather.gov     
National Weather Service

Regional Weather Roundup
NWS Homepage
This page is being discontinued on March 12, 2014.
The same data is available at this site. Please update your bookmarks.
Thank you, and we apologize for the inconvenience.
Please send an email to SR-SRH.Webmaster@noaa.gov with any concerns.


Current Version
Previous Version:    01  02  03  04  05  06  07  08  09  10  11  12  13  14  15  16  17  18  19  20  21  22  23  24  25  26  27  
[Printable]
647
ASUS41 KALY 251910
RWRALY

NEW YORK STATE HOURLY WEATHER ROUNDUP
NATIONAL WEATHER SERVICE ALBANY NY
300 PM EDT SAT OCT 25 2014

NOTE: "FAIR" INDICATES FEW OR NO CLOUDS BELOW 12,000 FEET WITH NO
SIGNIFICANT WEATHER AND/OR NO OBSTRUCTIONS TO VISIBILITY.

NYZ032-033-038>043-046>054-057>066-NYZ062>081-252000-
EAST


CITY           SKY/WX    TMP DP  RH WIND       PRES   REMARKS
ALBANY         PTSUNNY   61  46  57 S7        29.64F
GLENS FALLS    PTSUNNY   60  46  59 SW10      29.61F
POUGHKEEPSIE   MOSUNNY   65  42  43 W16       29.68F
NEWBURGH       MOSUNNY   64  45  48 NW12G25   29.69F
MONTGOMERY     SUNNY     65  42  43 SW15      29.67F
WHITE PLAINS   MOSUNNY   65  41  41 W10       29.69F
ISLIP          MOSUNNY   66  43  43 W13       29.69F
NEW YORK CITY  MOSUNNY   67  40  37 SW10      29.70F
CENTRAL PARK   SUNNY     66  41  40 MISG      29.72F
$$

NYZ005>009-017-018-044>046-055-056-252000-
CENTRAL


CITY           SKY/WX    TMP DP  RH WIND       PRES   REMARKS
FULTON         CLOUDY    63  46  54 S12       29.58F
SYRACUSE       CLOUDY    63  46  54 SW12      29.60F
ROME           CLOUDY    63  45  51 SW14G21   29.63F
ELMIRA         CLOUDY    67  43  41 W14       29.64F
BINGHAMTON     MOSUNNY   60  44  55 SW12      29.66F
MONTICELLO     MOSUNNY   59  41  51 W12       29.70F
$$

NYZ026>034-041>043-252000-
NORTH


CITY           SKY/WX    TMP DP  RH WIND       PRES   REMARKS
WATERTOWN      LGT RAIN  59  46  62 SW8       29.55F
FORT DRUM      NOT AVBL
MASSENA        LGT RAIN  57  48  72 SW9       29.54F
SARANAC LAKE   CLOUDY    53  45  74 SW9       29.57F
PLATTSBURGH    CLOUDY    54  45  71 SE10      29.58F
$$

NYZ001>004-010>016-019>021-252000-
WEST


CITY           SKY/WX    TMP DP  RH WIND       PRES   REMARKS
BUFFALO        CLOUDY    59  52  77 W24G41    29.63F
DUNKIRK        CLOUDY    59  53  80 SW23G36   29.69R
JAMESTOWN      CLOUDY    61  46  59 SW18G28   29.70F
WELLSVILLE     CLOUDY    62  43  49 W10G22    29.69F
ROCHESTER      PTSUNNY   66  48  52 W26G38    29.59F
PENN YAN       CLOUDY    65  44  46 SW9       29.62F
$$

             KEY
       WCI = WIND CHILL INDEX
       VSB = VISIBILITY
       HX  = HEAT INDEX
$$




U.S. Dept. of Commerce
NOAA National Weather Service
1325 East West Highway
Silver Spring, MD 20910
E-mail: w-nws.webmaster@noaa.gov
Page last modified: May 16, 2007
NATIONAL WEATHER SERVICE: for Safety, for Work, for Fun - FOR LIFE